カタログに戻る

STARLINK-36627

運用中通信VLEO
NORAD 67635·PAYLOAD·🇺🇸 United States

打ち上げ Jan 30, 2026 から Cape Canaveral Space Force Station

Loading…

次のパス (今後24時間)

TLE

最新Source: CelesTrak SupGP

元期: Sep 14, 2026, 22:29 UTC

1 67635C 26020U   26257.93729167 -.00034663  00000+0 -12555-2 0  2573
2 67635  43.0008 150.8902 0001390 269.1016 246.9036 15.27594661    14

AllMySatでSTARLINK-36627をリアルタイム追跡

Download on the App Store